This is the latest recevied weather packets stored in our database for station/object WD4ITN. If no packets are shown the sender has not sent any weather packets the latest 1 day(s).
| Time | Temp. | Humidity | Pressure | Rain* | Wind** | Luminosity | Snow |
|---|---|---|---|---|---|---|---|
| 1778036896 | 14.44° C | 63% | 1010.3 hPa | 0 mm | - | - | - |
| 1778036615 | 14.44° C | 62% | 1010.4 hPa | 0 mm | - | - | - |
| 1778036306 | 15° C | 61% | 1010.4 hPa | 0 mm | - | - | - |
| 1778036002 | 15° C | 61% | 1010.5 hPa | 0 mm | - | - | - |
| 1778035703 | 14.44° C | 62% | 1010.6 hPa | 0 mm | - | - | - |
| 1778035393 | 14.44° C | 62% | 1010.5 hPa | 0 mm | - | - | - |
| 1778035112 | 14.44° C | 62% | 1010.7 hPa | 0 mm | - | - | - |
| 1778034816 | 14.44° C | 62% | 1010.7 hPa | 0 mm | - | - | - |
| 1778034504 | 15° C | 61% | 1010.6 hPa | 0 mm | - | - | - |
| 1778033906 | 15.56° C | 59% | 1010.9 hPa | 0 mm | - | - | - |
| 1778033595 | 16.11° C | 58% | 1011 hPa | 0 mm | - | - | - |
| 1778033295 | 16.67° C | 56% | 1010.9 hPa | 0 mm | - | - | - |
| 1778033013 | 16.67° C | 54% | 1010.9 hPa | 0 mm | - | - | - |
| 1778032708 | 17.22° C | 53% | 1010.8 hPa | 0 mm | - | - | - |
| 1778032405 | 17.22° C | 52% | 1010.8 hPa | 0 mm | - | - | - |
| 1778032103 | 17.22° C | 53% | 1010.7 hPa | 0 mm | - | - | - |
| 1778031797 | 17.22° C | 53% | 1010.7 hPa | 0 mm | - | - | - |
| 1778031495 | 17.22° C | 54% | 1010.7 hPa | 0 mm | - | - | - |
| 1778031213 | 17.22° C | 53% | 1010.7 hPa | 0 mm | - | - | - |
| 1778030904 | 17.22° C | 53% | 1010.7 hPa | 0 mm | - | - | - |
| 1778030601 | 17.22° C | 53% | 1010.7 hPa | 0 mm | - | - | - |
| 1778030299 | 17.22° C | 52% | 1010.6 hPa | 0 mm | - | - | - |
| 1778029403 | 17.78° C | 49% | 1010.5 hPa | 0 mm | - | - | - |
* Rain since midnight (hover to see other rain measurements)
** Current wind speed in m/s (hover to see current wind gust speed)